Home > Time Zones > World Clock > Weather > Iran > Ahvaz > Past weeks

Flag for Iran Weather past 2 weeks in Ahvaz, Iran

Now
115 °F

Sunny.


Feels Like: 113 °F
Forecast: 94 / 118 °F
Wind: 7 mph from West

Location: Ahwaz

Current Time: Jul 25, 2014 at 2:18:28 PM

Latest Report: Jul 25, 2014 at 2:00 PM


Visibility: 10 mi

Pressure: 29.39 "Hg

Humidity: 13%

Dew point: 54 °F

Location of AhvazLocation

Historic Weather in Ahvaz — Graph

°F

Ahvaz temperature yesterday

Maximum temperature yesterday: 117 °F (at 4:30 PM)
Minimum temperature yesterday: 88 °F (at 5:30 AM)
Average temperature yesterday: 103 °F

Past Weeks' High & Low Weather Summary

 TemperatureHumidityPressure
High122 °F (Jul 17, 1:30 PM)42% (Jul 16, 7:30 AM)29.50 "Hg (Jul 16, 7:30 AM)
Low82 °F (Jul 12, 6:30 AM)8% (Jul 10, 2:30 PM)29.30 "Hg (Jul 17, 6:30 PM)
Average104 °F20%29.42 "Hg
* Reported Jul 10 1:00 PM — Jul 25 1:00 PM, Ahvaz, Weather by CustomWeather, © 2014

Note: Actual official high and low records may vary slightly from our data, if they occured in-between our weather recording intervals... More about our weather records

Advertising

Ahvaz weather history for previous 24 hours

 ConditionsComfort  
Time TempWeatherWind HumidityBarometerVisibility
1:00 PM
Jul 25
113 °FSunny.5 mph16%29.42 "Hg10 mi
12:30 PM111 °FSunny.5 mph17%29.42 "Hg10 mi
12:00 PM108 °FSunny.7 mph19%29.42 "Hg10 mi
11:30 AM106 °FSunny.5 mph20%29.42 "Hg10 mi
11:00 AM104 °FSunny.9 mph23%29.42 "Hg10 mi
10:30 AM102 °FSunny.5 mph24%29.42 "Hg10 mi
10:00 AM99 °FSunny.9 mph24%29.42 "Hg10 mi
9:30 AM97 °FSunny.9 mph27%29.42 "Hg5 mi
9:00 AM97 °FSunny.7 mph28%29.39 "Hg5 mi
8:30 AM95 °FClear.5 mph30%29.39 "Hg5 mi
8:00 AM93 °FPartly sunny.5 mph30%29.39 "Hg5 mi
7:30 AM93 °FPassing clouds.5 mph32%29.39 "HgN/A
5:30 AM91 °FClear.No wind34%29.36 "Hg10 mi
4:30 AM95 °FClear.9 mph28%29.36 "Hg10 mi
3:30 AM97 °FClear.7 mph27%29.36 "Hg10 mi
2:30 AM97 °FClear.7 mph27%29.36 "Hg10 mi
1:30 AM99 °FClear.7 mph25%29.36 "Hg10 mi
1:00 AM99 °FClear.9 mph25%29.36 "Hg10 mi
12:30 AM100 °FClear.9 mph24%29.36 "Hg10 mi
12:00 AM100 °FClear.9 mph24%29.36 "Hg10 mi
11:30 PM
Jul 24
102 °FClear.7 mph23%29.36 "Hg10 mi
11:00 PM102 °FClear.7 mph23%29.36 "Hg10 mi
10:30 PM104 °FClear.9 mph21%29.36 "Hg10 mi
10:00 PM104 °FClear.12 mph21%29.36 "Hg10 mi
9:30 PM106 °FSunny.5 mph20%29.33 "Hg10 mi
9:00 PM106 °FSunny.7 mph17%29.33 "Hg10 mi
8:30 PM108 °FSunny.9 mph17%29.33 "Hg10 mi
8:00 PM109 °FSunny.5 mph15%29.33 "Hg10 mi
7:30 PM111 °FSunny.14 mph14%29.33 "Hg5 mi
7:00 PM113 °FSunny.9 mph14%29.33 "Hg5 mi
6:30 PM115 °FSunny.12 mph15%29.33 "Hg10 mi
6:00 PM117 °FSunny.14 mph15%29.33 "Hg10 mi
5:00 PM117 °FSunny.9 mph13%29.33 "Hg10 mi
4:30 PM117 °FSunny.12 mph14%29.33 "Hg10 mi
4:00 PM115 °FSunny.5 mph13%29.33 "Hg10 mi
3:30 PM115 °FSunny.12 mph14%29.33 "Hg10 mi
3:00 PM115 °FSunny.9 mph14%29.36 "Hg10 mi
2:30 PM113 °FSunny.5 mph15%29.36 "Hg10 mi
2:00 PM113 °FSunny.7 mph16%29.39 "Hg10 mi
Weather by CustomWeather, © 2014

See weather overviewHow to use our weather pages